Time,TemperatureF,DewpointF,PressureIn,WindDirection,WindDirectionDegrees,WindSpeedMPH,WindSpeedGustMPH,Humidity,HourlyPrecipIn,Conditions,Clouds,dailyrainin,SolarRadiationWatts/m^2,SoftwareType,DateUTC
2013-10-18 00:09:00,45.4,41.0,29.95,NNW,339,0.0,0.0,85,0.00,,,0.00,0,weatherlink.com 1.10,2013-10-18 07:09:00,
2013-10-18 00:24:00,45.3,41.0,29.96,NNW,339,0.0,0.0,86,0.00,,,0.00,0,weatherlink.com 1.10,2013-10-18 07:24:00,
2013-10-18 00:39:00,45.1,41.0,29.95,NNW,339,0.0,0.0,86,0.00,,,0.00,0,weatherlink.com 1.10,2013-10-18 07:39:00,
2013-10-18 01:09:00,44.6,41.0,29.96,NNW,339,0.0,0.0,87,0.00,,,0.00,0,weatherlink.com 1.10,2013-10-18 08:09:00,
2013-10-18 01:24:00,44.5,41.0,29.96,NNW,339,1.0,2.0,88,0.00,,,0.00,0,weatherlink.com 1.10,2013-10-18 08:24:00,
2013-10-18 01:39:00,44.6,42.0,29.96,NNW,339,0.0,0.0,89,0.00,,,0.00,0,weatherlink.com 1.10,2013-10-18 08:39:00,
2013-10-18 01:54:00,44.3,41.0,29.97,NNW,339,0.0,0.0,89,0.00,,,0.00,0,weatherlink.com 1.10,2013-10-18 08:54:00,
2013-10-18 02:09:00,43.7,41.0,29.97,NNW,339,0.0,0.0,89,0.00,,,0.00,0,weatherlink.com 1.10,2013-10-18 09:09:00,
2013-10-18 02:24:00,43.4,40.0,29.97,NNW,339,0.0,0.0,89,0.00,,,0.00,0,weatherlink.com 1.10,2013-10-18 09:24:00,
2013-10-18 02:39:00,42.8,40.0,29.98,NNW,339,0.0,0.0,89,0.00,,,0.00,0,weatherlink.com 1.10,2013-10-18 09:39:00,
2013-10-18 02:54:00,42.2,39.0,29.98,NNW,339,0.0,2.0,89,0.00,,,0.00,0,weatherlink.com 1.10,2013-10-18 09:54:00,
2013-10-18 03:09:00,42.1,39.0,29.98,NNW,339,0.0,2.0,90,0.00,,,0.00,0,weatherlink.com 1.10,2013-10-18 10:09:00,
2013-10-18 03:24:00,42.3,40.0,29.98,NNW,339,0.0,0.0,90,0.00,,,0.00,0,weatherlink.com 1.10,2013-10-18 10:24:00,
2013-10-18 03:39:00,41.7,39.0,29.98,NNW,339,0.0,0.0,89,0.00,,,0.00,0,weatherlink.com 1.10,2013-10-18 10:39:00,
2013-10-18 03:54:00,41.2,39.0,29.98,NNW,339,0.0,0.0,90,0.00,,,0.00,0,weatherlink.com 1.10,2013-10-18 10:54:00,
2013-10-18 04:09:00,40.9,38.0,29.98,NNW,339,0.0,0.0,90,0.00,,,0.00,0,weatherlink.com 1.10,2013-10-18 11:09:00,
2013-10-18 04:24:00,40.6,38.0,29.98,NNW,339,0.0,2.0,90,0.00,,,0.00,0,weatherlink.com 1.10,2013-10-18 11:24:00,
2013-10-18 04:39:00,40.3,38.0,29.98,NNW,339,0.0,0.0,90,0.00,,,0.00,0,weatherlink.com 1.10,2013-10-18 11:39:00,
2013-10-18 04:54:00,40.1,38.0,29.98,NNW,339,0.0,0.0,91,0.00,,,0.00,0,weatherlink.com 1.10,2013-10-18 11:54:00,
2013-10-18 05:09:00,39.6,37.0,29.99,NNW,339,0.0,0.0,90,0.00,,,0.00,0,weatherlink.com 1.10,2013-10-18 12:09:00,
2013-10-18 05:24:00,39.8,38.0,29.99,NNW,339,0.0,3.0,92,0.00,,,0.00,0,weatherlink.com 1.10,2013-10-18 12:24:00,
2013-10-18 05:39:00,40.2,38.0,30.00,NNW,339,0.0,0.0,92,0.00,,,0.00,0,weatherlink.com 1.10,2013-10-18 12:39:00,
2013-10-18 05:54:00,39.5,37.0,30.00,NNW,339,0.0,0.0,90,0.00,,,0.00,0,weatherlink.com 1.10,2013-10-18 12:54:00,
2013-10-18 06:10:00,39.3,37.0,30.00,NNW,339,0.0,2.0,92,0.00,,,0.00,0,weatherlink.com 1.10,2013-10-18 13:10:00,
2013-10-18 06:25:00,39.2,37.0,30.00,NNW,339,0.0,1.0,92,0.00,,,0.00,0,weatherlink.com 1.10,2013-10-18 13:25:00,
2013-10-18 06:40:00,38.8,36.0,30.00,NNW,339,0.0,0.0,91,0.00,,,0.00,0,weatherlink.com 1.10,2013-10-18 13:40:00,
2013-10-18 06:55:00,38.2,36.0,30.00,NNW,339,0.0,0.0,91,0.00,,,0.00,0,weatherlink.com 1.10,2013-10-18 13:55:00,
2013-10-18 07:10:00,37.9,36.0,30.01,NNW,339,0.0,1.0,91,0.00,,,0.00,0,weatherlink.com 1.10,2013-10-18 14:10:00,
2013-10-18 07:25:00,37.9,36.0,30.01,NNW,339,0.0,3.0,92,0.00,,,0.00,7,weatherlink.com 1.10,2013-10-18 14:25:00,
2013-10-18 07:40:00,38.5,37.0,30.02,NNW,339,1.0,3.0,93,0.00,,,0.00,16,weatherlink.com 1.10,2013-10-18 14:40:00,
2013-10-18 07:55:00,40.7,39.0,30.02,NNW,339,0.0,2.0,94,0.00,,,0.00,32,weatherlink.com 1.10,2013-10-18 14:55:00,
2013-10-18 08:10:00,42.5,41.0,30.03,NNW,339,1.0,1.0,94,0.00,,,0.00,46,weatherlink.com 1.10,2013-10-18 15:10:00,
2013-10-18 08:25:00,45.2,44.0,30.04,South,174,2.0,5.0,95,0.00,,,0.00,44,weatherlink.com 1.10,2013-10-18 15:25:00,
2013-10-18 08:40:00,46.8,45.0,30.04,South,174,0.0,2.0,92,0.00,,,0.00,98,weatherlink.com 1.10,2013-10-18 15:40:00,
2013-10-18 08:55:00,49.1,46.0,30.05,South,176,2.0,4.0,89,0.00,,,0.00,223,weatherlink.com 1.10,2013-10-18 15:55:00,
2013-10-18 09:10:00,51.9,48.0,30.05,South,176,2.0,3.0,86,0.00,,,0.00,287,weatherlink.com 1.10,2013-10-18 16:10:00,
2013-10-18 09:25:00,55.9,50.0,30.05,South,176,0.0,2.0,79,0.00,,,0.00,348,weatherlink.com 1.10,2013-10-18 16:25:00,
2013-10-18 09:40:00,59.8,51.0,30.05,South,176,0.0,0.0,73,0.00,,,0.00,387,weatherlink.com 1.10,2013-10-18 16:40:00,
2013-10-18 09:55:00,63.1,51.0,30.05,South,176,0.0,1.0,66,0.00,,,0.00,434,weatherlink.com 1.10,2013-10-18 16:55:00,
2013-10-18 10:10:00,66.5,50.0,30.05,South,176,0.0,1.0,56,0.00,,,0.00,475,weatherlink.com 1.10,2013-10-18 17:10:00,
2013-10-18 10:25:00,68.0,49.0,30.05,South,176,0.0,3.0,51,0.00,,,0.00,512,weatherlink.com 1.10,2013-10-18 17:25:00,
2013-10-18 10:41:00,69.7,50.0,30.06,South,176,0.0,2.0,50,0.00,,,0.00,547,weatherlink.com 1.10,2013-10-18 17:41:00,
2013-10-18 10:56:00,71.0,50.0,30.05,South,176,0.0,3.0,47,0.00,,,0.00,578,weatherlink.com 1.10,2013-10-18 17:56:00,
2013-10-18 11:11:00,72.0,49.0,30.05,South,176,2.0,3.0,44,0.00,,,0.00,603,weatherlink.com 1.10,2013-10-18 18:11:00,
2013-10-18 11:26:00,73.5,49.0,30.05,South,177,0.0,3.0,42,0.00,,,0.00,628,weatherlink.com 1.10,2013-10-18 18:26:00,
2013-10-18 11:41:00,75.0,48.0,30.04,North,351,1.0,4.0,39,0.00,,,0.00,649,weatherlink.com 1.10,2013-10-18 18:41:00,
2013-10-18 11:56:00,75.0,48.0,30.04,North,360,0.0,3.0,38,0.00,,,0.00,666,weatherlink.com 1.10,2013-10-18 18:56:00,
2013-10-18 12:11:00,75.5,49.0,30.04,NNW,346,2.0,3.0,39,0.00,,,0.00,680,weatherlink.com 1.10,2013-10-18 19:11:00,
2013-10-18 12:26:00,75.3,49.0,30.03,NNW,345,1.0,4.0,40,0.00,,,0.00,689,weatherlink.com 1.10,2013-10-18 19:26:00,
2013-10-18 12:41:00,76.4,51.0,30.03,NNW,333,3.0,3.0,41,0.00,,,0.00,696,weatherlink.com 1.10,2013-10-18 19:41:00,
2013-10-18 12:56:00,78.0,50.0,30.02,South,181,4.0,4.0,37,0.00,,,0.00,698,weatherlink.com 1.10,2013-10-18 19:56:00,
2013-10-18 13:11:00,78.5,49.0,30.02,SSE,163,1.0,2.0,36,0.00,,,0.00,696,weatherlink.com 1.10,2013-10-18 20:11:00,
2013-10-18 13:26:00,80.2,49.0,30.01,SSE,168,0.0,4.0,34,0.00,,,0.00,693,weatherlink.com 1.10,2013-10-18 20:26:00,
2013-10-18 13:41:00,80.3,49.0,30.01,SSW,208,1.0,3.0,34,0.00,,,0.00,675,weatherlink.com 1.10,2013-10-18 20:41:00,
2013-10-18 13:56:00,80.0,49.0,30.00,SSW,208,0.0,2.0,34,0.00,,,0.00,107,weatherlink.com 1.10,2013-10-18 20:56:00,
2013-10-18 14:11:00,80.5,49.0,29.99,SSW,208,0.0,2.0,33,0.00,,,0.00,111,weatherlink.com 1.10,2013-10-18 21:11:00,
2013-10-18 14:26:00,80.7,48.0,29.99,SW,217,1.0,3.0,32,0.00,,,0.00,385,weatherlink.com 1.10,2013-10-18 21:26:00,
2013-10-18 14:41:00,81.5,47.0,29.99,SW,231,0.0,4.0,30,0.00,,,0.00,599,weatherlink.com 1.10,2013-10-18 21:41:00,
2013-10-18 14:56:00,82.7,47.0,29.98,WSW,242,0.0,3.0,29,0.00,,,0.00,573,weatherlink.com 1.10,2013-10-18 21:56:00,
2013-10-18 15:11:00,83.7,50.0,29.98,WSW,242,0.0,0.0,31,0.00,,,0.00,547,weatherlink.com 1.10,2013-10-18 22:11:00,
2013-10-18 15:26:00,85.0,49.0,29.98,WSW,242,0.0,2.0,29,0.00,,,0.00,515,weatherlink.com 1.10,2013-10-18 22:26:00,
2013-10-18 15:41:00,85.8,49.0,29.98,WSW,242,0.0,1.0,28,0.00,,,0.00,478,weatherlink.com 1.10,2013-10-18 22:41:00,
2013-10-18 15:56:00,85.7,49.0,29.97,WSW,242,0.0,1.0,28,0.00,,,0.00,438,weatherlink.com 1.10,2013-10-18 22:56:00,
2013-10-18 16:11:00,85.1,48.0,29.97,WSW,242,0.0,2.0,27,0.00,,,0.00,394,weatherlink.com 1.10,2013-10-18 23:11:00,
2013-10-18 16:26:00,84.3,51.0,29.97,WSW,242,0.0,1.0,32,0.00,,,0.00,350,weatherlink.com 1.10,2013-10-18 23:26:00,
2013-10-18 16:41:00,84.3,48.0,29.97,WSW,242,0.0,3.0,28,0.00,,,0.00,302,weatherlink.com 1.10,2013-10-18 23:41:00,
2013-10-18 16:57:00,85.2,54.0,29.97,WSW,242,0.0,1.0,34,0.00,,,0.00,257,weatherlink.com 1.10,2013-10-18 23:57:00,
2013-10-18 17:12:00,84.1,55.0,29.97,WSW,242,0.0,0.0,37,0.00,,,0.00,197,weatherlink.com 1.10,2013-10-19 00:12:00,
2013-10-18 17:27:00,82.9,61.0,29.97,WSW,242,0.0,0.0,47,0.00,,,0.00,72,weatherlink.com 1.10,2013-10-19 00:27:00,
2013-10-18 17:42:00,79.5,59.0,29.97,WSW,242,0.0,0.0,50,0.00,,,0.00,33,weatherlink.com 1.10,2013-10-19 00:42:00,
2013-10-18 17:57:00,76.0,58.0,29.97,WSW,242,0.0,0.0,54,0.00,,,0.00,23,weatherlink.com 1.10,2013-10-19 00:57:00,
2013-10-18 18:12:00,71.8,57.0,29.97,WSW,242,0.0,0.0,59,0.00,,,0.00,11,weatherlink.com 1.10,2013-10-19 01:12:00,
2013-10-18 18:27:00,68.1,54.0,29.97,WSW,242,0.0,0.0,62,0.00,,,0.00,0,weatherlink.com 1.10,2013-10-19 01:27:00,
2013-10-18 18:42:00,64.9,53.0,29.97,WSW,242,0.0,0.0,66,0.00,,,0.00,0,weatherlink.com 1.10,2013-10-19 01:42:00,
2013-10-18 18:57:00,61.7,52.0,29.97,WSW,242,0.0,0.0,71,0.00,,,0.00,0,weatherlink.com 1.10,2013-10-19 01:57:00,
2013-10-18 19:12:00,59.3,51.0,29.98,SSW,194,0.0,6.0,75,0.00,,,0.00,0,weatherlink.com 1.10,2013-10-19 02:12:00,
2013-10-18 19:27:00,58.2,50.0,29.98,SSW,194,0.0,0.0,75,0.00,,,0.00,0,weatherlink.com 1.10,2013-10-19 02:27:00,
2013-10-18 19:42:00,56.5,50.0,29.98,SSW,194,0.0,1.0,78,0.00,,,0.00,0,weatherlink.com 1.10,2013-10-19 02:42:00,
2013-10-18 19:57:00,55.1,49.0,29.98,SSW,194,0.0,1.0,81,0.00,,,0.00,0,weatherlink.com 1.10,2013-10-19 02:57:00,
2013-10-18 20:12:00,54.0,49.0,29.98,SSW,194,0.0,1.0,83,0.00,,,0.00,0,weatherlink.com 1.10,2013-10-19 03:12:00,
2013-10-18 20:27:00,52.8,48.0,29.99,SSW,194,0.0,0.0,83,0.00,,,0.00,0,weatherlink.com 1.10,2013-10-19 03:27:00,
2013-10-18 20:42:00,51.7,47.0,29.99,SSW,194,0.0,0.0,85,0.00,,,0.00,0,weatherlink.com 1.10,2013-10-19 03:42:00,
2013-10-18 20:57:00,51.1,47.0,29.99,SSW,194,0.0,0.0,85,0.00,,,0.00,0,weatherlink.com 1.10,2013-10-19 03:57:00,
2013-10-18 21:12:00,50.4,47.0,29.99,SSW,194,0.0,0.0,87,0.00,,,0.00,0,weatherlink.com 1.10,2013-10-19 04:12:00,
2013-10-18 21:27:00,50.1,47.0,30.00,SSW,194,0.0,0.0,88,0.00,,,0.00,0,weatherlink.com 1.10,2013-10-19 04:27:00,
2013-10-18 21:42:00,49.7,46.0,30.00,SSW,194,0.0,0.0,88,0.00,,,0.00,0,weatherlink.com 1.10,2013-10-19 04:42:00,
2013-10-18 21:57:00,49.0,45.0,30.00,SSW,194,0.0,0.0,87,0.00,,,0.00,0,weatherlink.com 1.10,2013-10-19 04:57:00,
2013-10-18 22:12:00,48.1,44.0,30.00,SSW,194,0.0,0.0,87,0.00,,,0.00,0,weatherlink.com 1.10,2013-10-19 05:12:00,
2013-10-18 22:27:00,47.6,44.0,30.01,SSW,194,0.0,0.0,88,0.00,,,0.00,0,weatherlink.com 1.10,2013-10-19 05:27:00,
2013-10-18 22:42:00,47.0,44.0,30.01,SSW,194,0.0,0.0,88,0.00,,,0.00,0,weatherlink.com 1.10,2013-10-19 05:42:00,
2013-10-18 22:57:00,46.6,44.0,30.01,SSW,194,0.0,0.0,89,0.00,,,0.00,0,weatherlink.com 1.10,2013-10-19 05:57:00,
2013-10-18 23:12:00,46.1,43.0,30.01,SSW,194,0.0,0.0,88,0.00,,,0.00,0,weatherlink.com 1.10,2013-10-19 06:12:00,
2013-10-18 23:27:00,45.4,42.0,30.01,SSW,194,0.0,2.0,89,0.00,,,0.00,0,weatherlink.com 1.10,2013-10-19 06:27:00,
2013-10-18 23:42:00,45.3,43.0,30.01,SSW,194,0.0,2.0,90,0.00,,,0.00,0,weatherlink.com 1.10,2013-10-19 06:42:00,
2013-10-18 23:57:00,45.1,42.0,30.01,SSW,194,0.0,0.0,90,0.00,,,0.00,0,weatherlink.com 1.10,2013-10-19 06:57:00,